Regional Weather Roundup
Issued by NWS

Home | Current Version | Previous Version | Graphics & Text | Print | Product List | Glossary On
Versions: 1 2 3 4 5 6 7 8 9 10 11 12 13 14 15 16 17 18 19 20 21 22 23 24 25 26 27 28 29 30 31 32 33 34 35 36 37 38 39 40 41 42 43 44 45 46 47 48 49 50
000
ASUS43 KMPX 240401
RWRMN
WEATHER ROUNDUP FOR MINNESOTA
NATIONAL WEATHER SERVICE TWIN CITIES/CHANHASSEN MN
1000 PM CST THU NOV 23 2017


NOTE: "FAIR" INDICATES FEW OR NO CLOUDS BELOW 12,000 FEET WITH NO
SIGNIFICANT WEATHER AND/OR OBSTRUCTIONS TO VISIBILITY. N/A MEANS
CURRENT SKY AND/OR WEATHER CONDITIONS ARE NOT AVAILABLE.

MNZ060>063-068>070-240500-
   Twin Cities Metro

CITY           SKY/WX    TMP DP  RH WIND       PRES   REMARKS
TWIN CITIES    CLOUDY    46  32  58 S9        29.63F
ST PAUL        CLOUDY    39  30  70 E7        29.65F
CRYSTAL        CLOUDY    45  29  53 S10       29.60F
BLAINE         CLOUDY    41  30  65 S8        29.60F
LAKEVILLE      CLOUDY    43  30  61 S9G20     29.63F
EDEN PRAIRIE   PTCLDY    46  31  55 SW14      29.61F
SOUTH ST PAUL  CLOUDY    44  31  59 S10       29.63F
LAKE ELMO      FAIR      41  32  70 S9        29.64F
$$
MNZ001>005-007-008-013>017-022>024-027-028-240500-
   Northwest Minnesota

CITY           SKY/WX    TMP DP  RH WIND       PRES   REMARKS
BEMIDJI        CLEAR     38  32  78 S10       29.39F
HALLOCK        CLOUDY    37  34  87 S10       29.26F
ROSEAU         CLOUDY    41  36  81 S18G24    29.26F
WARROAD        CLOUDY    39  36  87 SW13G18   29.27F
CROOKSTON      CLEAR     43  36  75 SW14      29.34F
FOSSTON        CLEAR     39  34  81 S17       29.38F
DETROIT LAKES  CLEAR     46  37  71 SW14      29.43F
MOORHEAD       CLEAR     43  34  70 S13       29.42F
PARK RAPIDS    CLEAR     34  29  82 S6        29.44F WCI  29
MAHNOMEN       FAIR      43  35  73 S15       29.40F
$$
MNZ006-009>011-018-025>026-240500-
   North Central Minnesota

CITY           SKY/WX    TMP DP  RH WIND       PRES   REMARKS
BAUDETTE       CLOUDY    33  28  81 S7        29.29F WCI  27
FLAG ISLAND    CLOUDY    28  27  93 S14       29.25F WCI  17
INTL FALLS     PTCLDY    35  26  69 VRB6      29.34F WCI  30
WASKISH        CLEAR     39  34  81 S8        29.33F
BIG FORK       PTCLDY    37  28  70 S9G16     29.40F
LONGVILLE      CLEAR     37  30  75 S9        29.45F
GRAND RAPIDS   PTCLDY    36  27  69 S16       29.46
CRANE LAKE     DRIZZLE   32  27  80 S6        29.43F WCI  26
ORR            CLOUDY    34  25  69 S10G16    29.39F WCI  26
COOK           MOCLDY    36  27  69 S8        29.44F
WALKER         FAIR      38  31  73 SW12G17   29.42F
$$
MNZ012-019>021-037-240500-
   Northeast Minnesota

CITY           SKY/WX    TMP DP  RH WIND       PRES   REMARKS
DULUTH         CLOUDY    35  26  69 SW15G24   29.50F WCI  25
ELY            MOCLDY    34  25  69 S13G18    29.44F WCI  25
HIBBING        CLOUDY    33  24  69 S7        29.46F WCI  27
EVELETH        CLOUDY    32  22  67 S7        29.48F WCI  26
DULUTH HARBOR  CLOUDY    37  28  70 SW9       29.55F
TWO HARBORS    MOCLDY    34  27  75 CALM      29.51F
SILVER BAY     CLOUDY    32  28  86 CALM      29.53F
GRAND MARAIS     N/A     39  32  76 S10       29.55F
G MARAIS ARPRT CLOUDY    28  25  86 S8        29.51F WCI  20
$$
MNZ029>031-032-039>041-046>048-054>057-064-240500-
   West Central Minnesota

CITY           SKY/WX    TMP DP  RH WIND       PRES   REMARKS
FERGUS FALLS   CLEAR     39  34  81 S10       29.49F
WHEATON        PTCLDY    52  37  58 SW10      29.49F
MORRIS         PTCLDY    43  36  75 S10       29.50F
ALEXANDRIA     PTCLDY    44  35  70 SW10      29.51F
ELBOW LAKE     FAIR      40  34  80 S13       29.49F
WADENA         PTCLDY    37  32  81 S8        29.46F
GLENWOOD       PTCLDY    43  36  75 S10       29.53F
APPLETON       MOCLDY    46  36  66 S6        29.53F
BENSON         PTCLDY    43  34  70 S6        29.55F
ORTONVILLE     PTCLDY    54  39  58 NW9       29.51F
MADISON        CLOUDY    54  41  62 SW12      29.53F
WILLMAR        FAIR      37  34  87 S5        29.57F
$$
MNZ033>034-036-042>043-049>051-058-059-240500-
   Central Minnesota

CITY           SKY/WX    TMP DP  RH WIND       PRES   REMARKS
ST CLOUD       PTCLDY    42  32  67 S10       29.55F
SAUK CENTRE    FAIR      41  33  73 S8        29.52F
PAYNESVILLE    MOCLDY    44  35  68 S10G17    29.56F
AITKIN         CLEAR     36  28  75 S8        29.48F
PINE RIVER     CLEAR     30  27  86 SE6       29.52F WCI  24
BRAINERD       CLOUDY    38  29  70 S13       29.49F
STAPLES        PTCLDY    36  30  80 S7        29.49F
LONG PRAIRIE   FAIR      39  32  75 S8        29.52
LITTLE FALLS   CLOUDY    36  27  69 SE5       29.53F
LITCHFIELD     PTCLDY    43  34  70 S5        29.58F
BUFFALO        CLOUDY    43  31  62 S8        29.60F
MAPLE LAKE     CLOUDY    43  33  68 S5        29.59F
HUTCHINSON     CLOUDY    41  33  71 S8        29.60F
$$
MNZ037-044-045-052-053-240500-
   East Central Minnesota

CITY           SKY/WX    TMP DP  RH WIND       PRES   REMARKS
PRINCETON      CLEAR     43  32  65 S8        29.57F
MORA           CLEAR     34  27  75 S6        29.59F WCI  29
CAMBRIDGE      CLEAR     41  28  60 S9        29.58F
RUSH CITY      CLEAR     37  27  65 S9        29.59F
MOOSE LAKE     CLOUDY    34  27  75 S10G16    29.52F WCI  26
HINCKLEY       FAIR      36  28  75 S7        29.57F
CLOQUET        PTCLDY    36  25  64 S10G18    29.51F
MCGREGOR       CLOUDY    36  30  80 S10       29.50F
$$
MNZ071>073-080-081-089-090-097-098-240500-
   Southwest Minnesota

CITY           SKY/WX    TMP DP  RH WIND       PRES   REMARKS
MONTEVIDEO     PTCLDY    46  37  71 SW9       29.54F
GRANITE FALLS  CLOUDY    46  37  73 S14       29.57F
CANBY          CLEAR     54  39  58 SW16G24   29.56F
MARSHALL       CLEAR     50  37  61 SW20G28   29.56F
REDWOOD FALLS  CLOUDY    46  34  62 S12       29.58F
OLIVIA         CLOUDY    41  32  70 S7        29.57F
PIPESTONE      CLEAR     46  37  71 SW12      29.62F
WINDOM         CLEAR     46  30  53 S16G24    29.63F
WORTHINGTON    CLOUDY    49  37  63 S16       29.64F
JACKSON        PTCLDY    45  34  65 S14       29.66F
SLAYTON        PTCLDY    48  37  66 S17       29.63F
$$
MNZ065>067-074>077-082>085-091>093-240500-
   South Central Minnesota

CITY           SKY/WX    TMP DP  RH WIND       PRES   REMARKS
MANKATO        CLEAR     42  31  64 S14       29.65F
NEW ULM        CLEAR     43  30  61 CALM      29.62F
ST JAMES       CLEAR     43  34  70 S9        29.64F
FAIRMONT       PTCLDY    45  34  65 S13       29.67F
GLENCOE        CLEAR     43  32  67 S9        29.60F
FARIBAULT      CLEAR     39  30  70 S9        29.66F
OWATONNA       CLEAR     41  30  65 S17       29.67F
WASECA         CLEAR     41  32  70 S15       29.68F
ALBERT LEA     CLOUDY    45  28  53 S12G17    29.70F
$$
MNZ078>079-086>088-094>096-240500-
   Southeast Minnesota

CITY           SKY/WX    TMP DP  RH WIND       PRES   REMARKS
ROCHESTER      CLEAR     38  30  73 S17       29.71F
RED WING       CLEAR     43  27  52 S6        29.67F
STANTON        CLEAR     45  32  60 S17G24    29.63F
DODGE CENTER   PTCLDY    41  28  60 S21       29.69F
WINONA         CLEAR     41  28  60 S3        29.73F
PRESTON        CLEAR     38  28  67 S16       29.74F
$$
ABBREVIATIONS USED IN REMARKS
   TC - TEMPERATURES IN CELSIUS
  WCI - WIND CHILL INDEX
   HX - HEAT INDEX
  VSB - VISIBILITY
$$




USA.gov is the U.S. government's official web portal to all federal, state and local government web resources and services.